Regional Weather Roundup
Issued by NWS

Home | Current Version | Previous Version | Text Only | Print | Product List | Glossary Off
Versions: 1 2 3 4 5 6 7 8 9 10 11 12 13 14 15 16 17 18 19 20 21 22 23 24 25 26 27 28 29 30 31 32 33 34 35 36 37 38 39 40 41 42 43 44 45 46 47 48 49 50

000
ASUS43 KMPX 181410
RWRMN
WEATHER ROUNDUP FOR MINNESOTA
NATIONAL WEATHER SERVICE TWIN CITIES/CHANHASSEN MN
800 AM CST SUN FEB 18 2018


NOTE: "FAIR" INDICATES FEW OR NO CLOUDS BELOW 12,000 FEET WITH NO
SIGNIFICANT WEATHER AND/OR OBSTRUCTIONS TO VISIBILITY. N/A MEANS
CURRENT SKY AND/OR WEATHER CONDITIONS ARE NOT AVAILABLE.

MNZ060>063-068>070-181500-
   Twin Cities Metro

CITY           SKY/WX    TMP DP  RH WIND       PRES   REMARKS
TWIN CITIES    CLOUDY    23   9  55 SE15      29.91F WCI  10
ST PAUL        CLOUDY    23   8  52 SE12      29.95F WCI  12
CRYSTAL        CLOUDY    23   7  50 SE12G25   29.90F WCI  12
BLAINE         CLOUDY    25   9  50 SE13      29.92F WCI  13
LAKEVILLE      FAIR      21  14  73 SE14G21   29.89F WCI   8
EDEN PRAIRIE   CLOUDY    24  10  55 SE17      29.87F WCI  11
SOUTH ST PAUL  CLOUDY    22   9  56 SE12      29.93F WCI  11
LAKE ELMO      FAIR      23   9  54 SE9       29.95F WCI  13
$$
MNZ001>005-007-008-013>017-022>024-027-028-181500-
   Northwest Minnesota

CITY           SKY/WX    TMP DP  RH WIND       PRES   REMARKS
BEMIDJI        SNOW      11   8  89 NE7       29.83F VSB 1/2 WCI   0
HALLOCK        LGT SNOW   9   5  85 E6        29.92S WCI  -1
WARROAD        FAIR       3  -2  78 CALM      29.93S
THIEF RVR FALL LGT SNOW  10   6  84 E13       29.86F FOG     WCI  -5
CROOKSTON      LGT SNOW  12   9  85 E10       29.86F VSB 3/4 WCI  -1
FOSSTON        SNOW      10   7  85 E8        29.82F VSB 1/4 WCI  -1
DETROIT LAKES  LGT SNOW  18  14  86 E8        29.77F WCI   7
MOORHEAD       MIX PCPN  18  14  86 E10       29.77F WCI   6
PARK RAPIDS    FLURRIES  14  10  84 E8        29.80S WCI   3
MAHNOMEN       CLOUDY    15  11  83 E6        29.81R WCI   7
$$
MNZ006-009>011-018-025>026-181500-
   North Central Minnesota

CITY           SKY/WX    TMP DP  RH WIND       PRES   REMARKS
BAUDETTE       CLOUDY     4  -5  66 E7        29.91F WCI  -8
FLAG ISLAND    MOCLDY     1  -8  66 CALM      29.94S
INTL FALLS     CLOUDY     2  -5  72 E7        29.95F WCI -11
WASKISH        LGT SNOW   9   5  85 E6        29.90S WCI  -1
BIG FORK       LGT SNOW  10   7  85 E3        29.90R
LONGVILLE      LGT SNOW  12  10  92 E6        29.84F WCI   3
GRAND RAPIDS   LGT SNOW  11   8  88 SE5       29.90F VSB 1   WCI   3
CRANE LAKE     CLOUDY     0  -4  85 CALM      29.99F
ORR            MIX PCPN   5   0  78 E3        29.90F
COOK           LGT SNOW   7   3  85 E3        29.93F
WALKER         LGT SNOW  12   9  88 E6        29.82F WCI   3
$$
MNZ012-019>021-037-181500-
   Northeast Minnesota

CITY           SKY/WX    TMP DP  RH WIND       PRES   REMARKS
DULUTH         LGT SNOW  14   8  77 SE10      29.94S VSB 3/4 WCI   1
ELY            LGT SNOW   3   0  85 CALM      29.95F
HIBBING        SNOW       7   5  91 E5        29.92F VSB 1/4 WCI  -2
EVELETH        LGT SNOW N/A N/A N/A CALM      29.94S VSB 3/4
DULUTH HARBOR  LGT SNOW  18  10  73 SE5       30.02S WCI  11
TWO HARBORS    LGT SNOW  14   7  73 CALM      29.98R VSB 3/4
GRAND MARAIS     N/A     12  -1  56 CALM      30.07R
G MARAIS ARPRT CLOUDY     0  -6  78 CALM      29.96R
$$
MNZ029>031-032-039>041-046>048-054>057-064-181500-
   West Central Minnesota

CITY           SKY/WX    TMP DP  RH WIND       PRES   REMARKS
FERGUS FALLS   MOCLDY    19  14  79 SE15G23   29.71F WCI   5
WHEATON        CLOUDY    25  12  58 E21       29.68F WCI  10
MORRIS         CLOUDY    25  14  63 SE23G32   29.65F WCI  10
ALEXANDRIA     CLOUDY    20   9  62 SE20G31   29.69F WCI   4
ELBOW LAKE     CLOUDY    22  11  64 SE18G25   29.69F WCI   7
WADENA         MOCLDY    16  12  86 E13       29.77F WCI   2
GLENWOOD       FAIR      21  10  63 E26G33    29.69F WCI   4
APPLETON       CLOUDY    27  19  74 SE16G26   29.66F WCI  14
BENSON         CLOUDY    27  18  69 S22G31    29.68F WCI  12
ORTONVILLE     CLOUDY    27  19  74 SE24G32   29.63F WCI  12
MADISON        CLOUDY    28  21  74 SE16      29.63F WCI  17
WILLMAR        FAIR      25  16  68 SE25G35   29.71F WCI   9
$$
MNZ033>034-036-042>043-049>051-058-059-181500-
   Central Minnesota

CITY           SKY/WX    TMP DP  RH WIND       PRES   REMARKS
ST CLOUD       CLOUDY    21   7  54 SE9G20    29.84F WCI  11
SAUK CENTRE    CLOUDY    20   8  59 E20G26    29.73F WCI   5
PAYNESVILLE    CLOUDY    23  12  62 SE18G26   29.75F WCI   9
AITKIN         MOCLDY    14   9  79 SE12      29.88R WCI   0
PINE RIVER     CLOUDY    14  10  85 SE9       29.86F WCI   2
BRAINERD       CLOUDY    18   9  68 E9        29.85F WCI   7
STAPLES        MOCLDY    16  10  79 E8G18     29.77F WCI   5
LONG PRAIRIE   FAIR      19   9  63 E17G24    29.75F WCI   4
LITTLE FALLS   CLOUDY    19   3  49 SE14G22   29.82F WCI   6
LITCHFIELD     FAIR      25  16  68 SE21G28   29.78F WCI  10
BUFFALO        CLOUDY    24   9  52 E12       29.87F WCI  13
MAPLE LAKE     CLOUDY    24  11  57 SE10G16   29.85F WCI  14
HUTCHINSON     CLOUDY    24  18  75 E18G24    29.80F WCI  11
$$
MNZ037-044-045-052-053-181500-
   East Central Minnesota

CITY           SKY/WX    TMP DP  RH WIND       PRES   REMARKS
PRINCETON      FAIR      21   7  53 E9        29.89F WCI  11
MORA           FAIR      18   7  62 SE6       29.96R WCI   9
CAMBRIDGE      FAIR      21   9  58 E7        29.92F WCI  13
RUSH CITY      CLOUDY    19   7  58 SE7       29.97R WCI  10
MOOSE LAKE     CLOUDY    18  10  73 E3        29.91F
HINCKLEY       CLOUDY    18   9  68 SE5       29.96R WCI  11
CLOQUET        LGT SNOW  12   9  85 SE5       29.94S WCI   4
MCGREGOR       CLOUDY    16  12  86 E8        29.89F WCI   5
$$
MNZ071>073-080-081-089-090-097-098-181500-
   Southwest Minnesota

CITY           SKY/WX    TMP DP  RH WIND       PRES   REMARKS
MONTEVIDEO     CLOUDY    27  21  80 S20G28    29.65F WCI  13
GRANITE FALLS  CLOUDY    28  22  79 SE20G30   29.66F WCI  14
CANBY          CLOUDY    29  24  79 E9        29.61F WCI  21
MARSHALL       CLOUDY    29  22  75 S28G33    29.58F WCI  14
REDWOOD FALLS  CLOUDY    25  21  85 SE28G36   29.71F WCI   9
OLIVIA         CLOUDY    27  21  80 SE22G32   29.71F WCI  12
PIPESTONE      CLOUDY    28  21  74 S26G33    29.57F WCI  13
WINDOM         PTCLDY    27  10  50 SE24G31   29.69F HAZE    WCI  12
WORTHINGTON    LGT SNOW  26  22  84 S29       29.65F FOG     WCI  10
JACKSON        CLOUDY    28  23  80 S26G36    29.73F HAZE    WCI  13
TRACY          CLOUDY    29  24  82 S28G37    29.61F WCI  14
SLAYTON        PTCLDY    28  23  83 SE24G32   29.62F WCI  13
$$
MNZ065>067-074>077-082>085-091>093-181500-
   South Central Minnesota

CITY           SKY/WX    TMP DP  RH WIND       PRES   REMARKS
MANKATO        FAIR      25  21  85 SE25G31   29.80F WCI   9
NEW ULM        CLOUDY    25  19  80 SE20G28   29.76F WCI  11
ST JAMES       CLOUDY    27  23  86 SE28G33   29.78F FOG     WCI  11
FAIRMONT       MIX PCPN  26  22  84 SE24      29.79F WCI  11
GLENCOE        CLOUDY    25  19  77 E16       29.82F WCI  12
FARIBAULT      FAIR      27  19  74 SE21G28   29.88F WCI  13
OWATONNA       FAIR      25  19  80 SE24      29.88F WCI   9
WASECA         FAIR      25  19  80 SE24      29.86F HAZE    WCI   9
ALBERT LEA     FAIR      25  21  86 SE22G28   29.88F FOG     WCI  10
$$
MNZ078>079-086>088-094>096-181500-
   Southeast Minnesota

CITY           SKY/WX    TMP DP  RH WIND       PRES   REMARKS
ROCHESTER      FAIR      21  19  92 SE20      29.95F WCI   6
RED WING       MOCLDY    21   9  58 SE13      29.97F WCI   9
STANTON        CLOUDY    24  16  69 SE14G23   29.90F WCI  12
DODGE CENTER   FAIR      21  18  86 SE20G25   29.92F WCI   6
WINONA         FAIR      21  19  93 SE7       30.03F WCI  13
AUSTIN         FAIR      21  19  93 SE12G17   29.93F WCI   9
PRESTON        FAIR      21  19  93 SE13      30.00F WCI   9
$$
ABBREVIATIONS USED IN REMARKS
   TC - TEMPERATURES IN CELSIUS
  WCI - WIND CHILL INDEX
   HX - HEAT INDEX
  VSB - VISIBILITY
$$




USA.gov is the U.S. government's official web portal to all federal, state and local government web resources and services.